Wind_Speed
7 12 14 15 11 13 21 22 21 16 20 23 22 18 24 30 35 25 22 22 12 11 7 9 10 13 15 13 14 15 18 19 19 19 19 19 20 19 19 18 18 18 18 18 19 19 19 19 20
5 11 14 16 14 20 21 19 23 16 12 14 15 17 15 16 16 25 25 19 14 9 8 7 10 10 11 12 13 15 17 17 18 17 17 16 16 15 16 15 15 15 15 16 17 17 18 19 19
9 8 14 12 22 32 22 17 11 12 13 10 15 14 7 12 17 23 22 21 18 15 9 6 9 9 10 12 13 13 15 16 16 16 14 13 12 12 11 11 12 12 12 12 13 13 14 15 17
15 10 13 19 25 26 24 21 12 9 13 7 15 7 10 15 25 20 22 23 19 15 13 9 9 9 10 11 10 10 12 13 15 13 11 10 10 9 9 9 9 9 9 9 9 11 12 13 13
20 17 17 21 30 29 22 15 9 6 6 8 15 15 12 17 18 17 21 20 17 20 16 12 10 10 10 10 9 7 8 11 11 11 11 10 8 6 7 8 8 8 9 9 8 8 9 10 10
24 23 18 24 29 24 22 18 14 10 3 7 13 7 8 19 16 17 19 20 19 13 16 14 13 12 11 12 7 6 7 7 8 8 7 6 5 5 6 8 8 9 9 10 10 10 10 10 10
28 28 29 29 29 24 16 15 14 11 7 6 16 6 10 20 18 21 22 23 22 21 17 14 14 14 13 11 8 7 5 5 4 4 3 2 2 3 5 7 9 10 10 10 11 11 11 12 11
31 33 33 35 33 28 17 14 15 12 11 4 13 3 10 19 19 27 22 25 26 25 20 16 15 15 11 10 10 7 6 4 4 4 3 3 4 5 7 10 13 15 13 12 14 14 14 14 14
33 37 40 40 36 31 15 15 18 15 16 5 8 2 6 13 15 27 19 27 28 29 23 21 19 17 14 11 12 10 7 7 6 5 6 8 9 10 12 13 16 17 19 17 16 17 18 17 17
36 44 44 41 32 32 25 25 20 26 20 10 5 5 13 15 19 20 16 26 30 30 27 25 21 19 17 15 13 11 11 9 8 8 9 9 11 12 14 15 18 19 20 19 18 17 19 20 19
38 45 38 35 32 33 31 36 30 31 29 19 7 7 10 10 27 25 23 23 26 25 29 24 25 25 23 20 18 16 14 14 13 13 13 14 16 18 16 18 20 20 21 21 21 19 19 19 20
33 38 38 38 37 35 37 36 42 37 36 27 18 10 7 9 17 19 28 30 32 29 27 33 29 28 27 25 23 21 20 20 17 17 17 16 18 20 21 22 23 23 21 24 23 22 21 20 21
30 32 33 33 34 35 37 40 40 47 38 36 31 26 15 11 9 19 23 32 24 32 26 32 30 31 29 29 27 25 23 24 22 22 23 19 13 19 21 23 23 23 23 25 24 25 26 24 23
27 30 34 33 33 34 34 37 36 46 44 40 37 34 26 21 12 18 28 33 36 30 28 32 34 34 36 34 31 29 27 30 28 27 25 20 16 16 18 19 22 23 23 26 27 29 29 28 25
25 29 30 29 28 32 30 39 44 41 42 42 38 37 33 27 20 14 12 29 38 34 26 31 37 35 37 39 36 31 28 31 32 26 22 21 20 18 17 20 23 23 25 28 29 29 29 28 25
21 22 22 11 5 14 22 49 37 34 38 41 48 40 36 30 29 23 17 14 28 33 35 29 33 37 39 43 44 36 35 35 35 26 22 25 25 23 23 26 25 26 28 29 29 29 28 27 24
5 8 15 9 1 6 21 36 29 28 32 35 45 51 47 40 33 31 28 21 20 27 34 33 33 34 33 36 40 38 39 41 34 33 31 33 32 32 28 30 31 28 35 31 30 28 28 26 24
15 19 17 18 11 14 19 31 29 29 31 33 35 42 48 55 47 40 34 30 27 26 29 32 33 35 32 32 32 34 36 32 32 33 36 39 40 36 31 33 34 36 38 36 31 30 27 24 24
14 14 15 12 9 18 23 34 34 29 30 31 36 38 41 42 48 49 42 38 34 34 33 34 31 30 34 36 36 37 35 34 35 37 34 36 34 38 35 36 38 41 38 35 31 28 22 21 22
12 17 19 19 18 20 25 37 37 34 35 35 36 39 39 42 40 39 42 40 42 33 38 41 36 33 41 46 44 46 41 37 37 36 36 36 38 35 39 42 44 45 38 33 27 25 21 20 20
15 19 23 27 30 26 31 45 37 36 37 37 37 38 41 40 43 39 39 41 49 40 44 43 39 43 43 38 41 45 44 45 41 40 40 37 34 39 43 45 48 45 33 27 25 25 20 21 21
17 18 24 28 27 21 24 24 42 38 38 35 35 36 35 42 41 41 45 43 46 56 53 48 44 37 48 43 43 48 44 43 40 41 36 34 38 42 45 48 51 33 26 25 23 23 21 21 23
13 17 24 27 29 28 26 17 51 34 41 41 35 31 28 30 42 45 40 40 39 45 48 44 56 42 47 56 48 44 45 40 34 37 37 37 41 45 48 51 40 27 26 24 23 24 23 23 24
16 21 27 22 20 7 26 21 50 41 40 36 27 23 24 26 26 37 46 42 37 41 42 38 39 45 45 49 56 53 51 41 36 36 38 40 43 46 51 52 34 27 25 23 22 23 22 21 20
15 19 7 5 3 5 7 12 36 23 26 26 31 33 32 28 27 31 40 50 44 37 41 42 36 41 42 40 42 45 47 39 37 39 40 43 47 50 53 41 28 24 25 22 21 21 23 22 19
23 19 5 5 4 10 31 10 26 21 17 21 22 25 30 35 37 32 32 43 52 43 40 45 47 41 40 41 36 37 41 42 42 43 44 47 52 49 53 31 26 26 23 21 21 23 24 20 20
14 15 20 21 24 11 14 23 29 24 9 15 22 21 23 25 33 42 39 35 46 49 45 46 46 50 46 40 36 37 39 41 43 46 45 48 49 49 38 27 27 24 22 22 24 24 21 20 21
25 26 13 11 4 7 10 15 23 18 22 16 20 25 23 24 30 33 40 41 40 52 46 46 49 51 53 48 42 43 45 45 45 44 47 48 45 38 30 26 25 25 24 25 25 21 20 22 19
20 21 21 18 15 4 8 14 23 16 18 25 27 23 25 25 25 34 36 43 46 50 52 45 48 46 47 46 38 35 31 33 37 39 36 34 34 31 27 25 24 25 26 25 21 21 21 21 17
17 21 19 16 8 14 18 37 37 33 27 22 24 30 30 31 31 30 37 35 41 44 53 46 43 44 44 37 33 35 37 35 36 36 35 36 33 29 27 26 26 26 24 21 20 19 19 17 17
Wind_Direction
243 223 222 224 217 232 243 240 241 230 231 244 252 266 288 269 260 228 216 182 161 154 128 138 124 136 149 143 126 116 108 101 96 92 86 81 77 74 71 68 64 61 59 55 50 45 39 36 33
255 225 219 221 228 237 250 249 245 257 260 227 226 287 295 245 219 223 196 188 165 174 150 148 129 118 152 158 137 120 107 102 95 89 83 78 73 70 67 64 60 57 55 52 46 41 37 32 30
272 238 217 221 233 239 248 256 265 258 250 249 276 308 220 212 208 203 213 218 190 180 190 177 137 128 151 165 142 124 111 104 97 91 87 81 75 68 60 54 50 46 43 43 41 31 26 27 29
256 245 229 233 236 246 244 254 281 261 223 253 322 310 225 202 207 208 205 202 189 175 180 186 155 136 149 164 153 129 114 116 101 97 92 79 66 59 50 44 37 29 26 24 27 17 10 11 9
244 243 233 246 244 247 250 260 273 263 301 309 347 310 257 215 210 206 191 192 187 183 179 180 165 148 143 164 166 145 123 123 117 104 91 76 58 37 26 18 9 3 2 356 357 357 355 353 351
235 236 234 246 252 258 262 266 261 272 273 319 340 329 232 205 193 175 194 191 178 194 187 184 176 159 152 167 167 167 140 121 124 116 106 86 56 27 7 357 348 340 338 335 329 329 328 325 327
238 234 238 250 260 266 268 264 239 247 258 276 357 3 225 221 207 184 184 188 188 187 193 194 185 173 165 170 176 174 162 139 146 137 128 105 38 349 336 332 331 323 320 321 314 314 314 306 306
230 238 241 242 249 259 270 281 231 256 231 271 5 72 226 219 210 191 191 191 190 189 196 202 195 186 178 167 182 188 196 191 206 219 241 271 281 303 312 314 314 311 307 311 309 308 302 298 298
232 235 236 238 243 248 255 263 241 245 253 229 43 190 193 190 218 199 199 197 194 198 201 203 198 195 189 180 188 201 211 222 235 250 267 275 286 292 298 306 308 310 308 308 310 313 301 297 295
229 235 239 244 250 253 245 238 257 255 248 216 144 111 190 204 214 223 218 216 204 205 206 207 206 206 203 199 197 216 226 236 247 255 267 283 290 291 297 309 309 310 309 307 310 313 309 300 293
230 239 243 248 249 251 238 244 243 262 238 236 208 123 149 172 210 209 224 234 217 231 212 214 214 210 212 212 207 214 234 240 247 258 272 290 294 289 289 306 311 305 305 305 307 314 315 302 293
236 241 246 248 248 250 249 241 242 242 228 248 220 235 148 182 232 234 234 225 222 216 232 214 213 215 218 218 216 219 230 238 247 260 269 286 291 290 291 295 302 302 299 303 303 311 316 307 297
237 245 244 248 250 251 251 249 249 238 235 250 245 251 242 222 218 229 246 225 216 217 233 221 220 228 221 225 221 224 233 242 244 255 266 272 292 288 288 293 294 296 294 297 297 304 307 310 298
238 243 247 248 248 252 254 251 248 228 239 243 248 247 249 252 215 219 230 228 217 237 245 228 225 232 227 227 226 229 236 245 248 252 257 264 276 284 285 290 289 292 292 292 292 298 301 304 297
262 265 261 261 262 259 260 258 242 240 250 247 248 247 253 250 236 228 226 239 234 237 232 247 225 227 227 236 231 229 232 244 247 243 248 267 273 273 286 296 293 294 290 287 287 291 296 298 294
276 277 291 303 273 272 259 259 254 255 261 253 243 250 253 251 238 237 238 233 229 226 234 245 234 231 233 243 232 230 251 241 246 245 261 276 280 280 284 301 298 293 290 283 282 284 291 296 292
349 335 330 334 267 275 239 262 267 265 263 256 245 244 250 251 244 239 240 238 228 227 231 233 235 245 248 246 241 247 230 234 245 248 262 274 284 290 280 296 301 295 298 284 280 280 287 292 288
320 322 315 306 296 289 270 263 263 259 259 254 252 245 245 247 246 245 240 239 237 226 229 236 242 245 236 239 236 235 241 247 257 260 265 270 277 287 288 296 298 305 301 286 283 277 279 286 292
332 333 334 327 331 299 282 275 267 258 257 257 250 249 249 248 247 244 245 243 233 240 243 243 242 227 235 225 228 245 255 263 264 267 273 278 281 286 293 295 298 307 292 283 276 270 269 279 287
327 332 328 316 305 297 289 274 270 270 267 269 260 250 252 247 245 246 246 243 238 241 234 243 248 243 234 237 245 254 257 264 268 270 272 273 285 286 290 295 299 302 285 277 270 264 261 270 278
325 328 323 319 315 299 302 284 280 271 270 269 268 267 258 260 250 245 245 248 241 240 242 244 249 249 244 244 250 250 249 256 262 267 271 281 282 283 288 291 298 298 274 266 263 259 262 267 271
310 315 315 312 315 308 301 291 286 285 282 276 271 270 273 266 260 249 243 244 242 241 246 243 244 250 249 246 247 249 250 253 260 268 272 272 276 281 288 296 303 279 265 260 260 260 267 268 269
309 316 316 311 301 291 282 266 280 285 284 281 280 282 277 272 264 255 244 247 244 234 237 242 243 241 244 242 243 245 247 254 258 262 264 270 277 284 292 300 293 270 258 258 259 266 272 265 264
311 314 317 308 300 257 270 246 280 282 276 283 283 271 268 271 260 251 246 240 242 243 240 236 233 231 240 239 241 243 247 252 258 260 266 275 282 288 294 300 276 258 252 257 261 270 265 268 256
313 309 324 325 311 240 316 323 264 277 281 273 276 279 270 271 268 256 245 243 242 240 239 236 239 230 233 243 238 242 248 250 253 264 273 278 284 289 294 288 260 245 249 255 262 269 264 265 263
291 278 234 255 264 285 299 253 267 275 285 268 274 279 277 277 277 267 254 238 241 238 238 241 242 242 237 239 247 251 247 252 262 269 276 279 283 288 293 268 246 237 247 256 263 270 263 254 266
281 246 282 265 271 272 257 269 284 290 278 291 267 270 280 279 274 270 266 255 236 234 238 240 243 244 243 239 244 250 257 262 266 270 275 277 278 281 274 251 237 238 248 255 266 268 258 258 262
269 277 260 253 265 241 265 265 253 261 287 279 293 291 290 290 277 269 263 262 251 232 233 236 243 248 247 246 247 256 261 261 266 269 270 269 269 266 254 240 235 241 250 257 267 255 251 259 260
284 269 255 262 238 234 272 261 273 279 281 282 291 300 300 301 297 259 257 258 260 236 230 229 238 244 249 250 246 248 250 252 260 259 256 258 261 254 241 236 237 246 252 261 252 245 251 259 262
266 265 252 242 242 237 257 265 267 274 289 288 292 290 298 298 307 254 252 259 264 253 229 227 232 237 246 241 241 247 249 253 251 252 255 266 249 237 237 240 244 248 254 241 240 244 247 250 260
Height
3131 3132 3133 3135 3139 3132 3127 3127 3132 3134 3138 3140 3144 3146 3146 3144 3142 3143 3142 3147 3147 3149 3151 3154 3156 3157 3160 3162 3163 3164 3163 3164 3164 3164 3164 3164 3164 3165 3165 3166 3166 3166 3167 3167 3167 3166 3166 3165 3164
3130 3130 3131 3131 3133 3127 3124 3128 3129 3133 3136 3137 3140 3141 3139 3134 3134 3138 3141 3143 3145 3147 3149 3153 3155 3156 3159 3162 3163 3164 3164 3164 3164 3165 3165 3165 3166 3167 3167 3168 3169 3169 3169 3168 3168 3168 3168 3167 3166
3129 3128 3129 3129 3126 3121 3123 3127 3130 3131 3134 3136 3136 3135 3133 3133 3133 3138 3141 3142 3141 3144 3147 3152 3154 3156 3160 3162 3164 3165 3164 3165 3165 3164 3166 3167 3168 3169 3169 3169 3169 3170 3170 3170 3169 3168 3168 3168 3167
3127 3127 3128 3124 3120 3120 3123 3126 3129 3129 3130 3132 3132 3130 3131 3133 3134 3137 3138 3139 3140 3142 3146 3149 3153 3155 3159 3161 3164 3165 3166 3166 3165 3166 3166 3168 3169 3170 3170 3170 3170 3171 3171 3171 3170 3169 3168 3168 3167
3123 3123 3122 3121 3116 3117 3122 3125 3128 3127 3128 3129 3130 3126 3127 3130 3133 3135 3136 3137 3137 3140 3144 3148 3151 3154 3156 3160 3163 3164 3166 3167 3166 3166 3167 3168 3170 3171 3171 3171 3171 3171 3171 3170 3170 3170 3169 3168 3167
3119 3119 3118 3117 3113 3118 3120 3124 3125 3126 3126 3127 3127 3123 3126 3129 3130 3132 3136 3137 3139 3142 3145 3147 3150 3152 3155 3158 3161 3164 3164 3166 3167 3167 3167 3169 3170 3171 3171 3171 3172 3171 3171 3170 3170 3170 3169 3168 3167
3112 3114 3112 3113 3112 3114 3118 3121 3122 3123 3122 3124 3124 3122 3126 3128 3129 3131 3133 3136 3138 3141 3144 3146 3149 3151 3153 3157 3160 3162 3164 3165 3166 3167 3167 3168 3169 3170 3171 3171 3171 3171 3171 3170 3169 3169 3168 3167 3166
3108 3108 3106 3109 3109 3112 3116 3118 3119 3119 3119 3123 3123 3121 3128 3129 3128 3130 3132 3134 3137 3140 3143 3146 3148 3150 3151 3154 3158 3161 3163 3164 3165 3166 3167 3168 3168 3169 3170 3170 3170 3170 3169 3169 3168 3167 3166 3165 3164
3102 3101 3098 3104 3107 3109 3117 3116 3116 3117 3117 3121 3122 3120 3123 3125 3128 3131 3132 3135 3136 3140 3142 3145 3146 3148 3150 3152 3156 3160 3162 3163 3164 3165 3166 3166 3167 3168 3169 3168 3168 3168 3168 3167 3166 3166 3164 3163 3162
3096 3092 3094 3101 3106 3111 3112 3111 3114 3112 3114 3117 3121 3120 3119 3122 3128 3131 3132 3133 3135 3139 3141 3144 3145 3147 3149 3151 3153 3157 3160 3161 3163 3164 3164 3164 3165 3166 3166 3167 3166 3166 3165 3164 3163 3163 3162 3160 3159
3089 3084 3092 3096 3101 3105 3108 3106 3112 3107 3106 3113 3115 3115 3115 3119 3125 3126 3129 3131 3133 3136 3138 3140 3142 3145 3147 3149 3150 3153 3156 3158 3160 3162 3163 3163 3163 3164 3164 3164 3164 3163 3162 3161 3160 3159 3158 3157 3155
3083 3084 3087 3091 3096 3100 3100 3103 3100 3103 3098 3108 3112 3112 3114 3115 3119 3123 3125 3126 3129 3132 3135 3137 3138 3141 3144 3146 3148 3151 3153 3156 3157 3160 3160 3161 3161 3161 3161 3161 3161 3159 3158 3158 3157 3155 3155 3152 3151
3078 3080 3083 3087 3090 3092 3095 3094 3096 3090 3099 3103 3107 3109 3111 3113 3114 3117 3121 3123 3126 3129 3131 3134 3136 3139 3141 3144 3145 3147 3150 3152 3152 3156 3158 3158 3158 3158 3158 3157 3157 3156 3154 3154 3152 3151 3150 3148 3147
3075 3075 3079 3081 3084 3085 3087 3086 3090 3085 3093 3098 3100 3103 3106 3109 3111 3111 3117 3121 3122 3125 3127 3130 3132 3136 3138 3139 3143 3144 3146 3149 3149 3150 3153 3154 3154 3154 3153 3153 3152 3150 3150 3149 3147 3146 3145 3144 3142
3072 3072 3074 3078 3081 3081 3084 3078 3075 3088 3087 3088 3094 3097 3101 3103 3106 3108 3110 3113 3118 3121 3124 3127 3128 3130 3133 3136 3138 3142 3144 3146 3145 3146 3147 3150 3151 3149 3149 3148 3147 3145 3145 3144 3142 3141 3139 3138 3136
3069 3071 3073 3075 3076 3077 3079 3058 3074 3081 3080 3082 3084 3091 3093 3096 3099 3102 3104 3106 3110 3113 3117 3120 3122 3125 3130 3132 3133 3135 3140 3142 3142 3142 3142 3145 3145 3145 3144 3143 3142 3140 3138 3137 3137 3135 3133 3132 3130
3069 3071 3072 3072 3072 3071 3070 3059 3066 3071 3072 3073 3076 3080 3082 3085 3091 3095 3100 3102 3104 3107 3112 3114 3116 3119 3122 3125 3126 3129 3130 3134 3136 3137 3137 3140 3140 3139 3138 3138 3136 3134 3132 3131 3131 3129 3128 3126 3124
3067 3067 3068 3067 3068 3066 3063 3056 3060 3064 3065 3066 3068 3069 3072 3076 3083 3088 3091 3094 3099 3101 3105 3109 3110 3114 3116 3118 3121 3124 3126 3129 3130 3131 3134 3135 3133 3132 3132 3131 3130 3129 3126 3124 3123 3122 3121 3120 3119
3066 3065 3064 3064 3065 3061 3058 3052 3054 3058 3059 3059 3059 3061 3063 3068 3073 3078 3083 3086 3088 3093 3097 3101 3103 3106 3110 3112 3114 3116 3118 3121 3123 3124 3126 3126 3125 3125 3124 3123 3123 3123 3120 3117 3115 3114 3115 3114 3114
3065 3063 3061 3060 3061 3059 3053 3045 3047 3051 3051 3052 3052 3053 3055 3058 3063 3068 3071 3075 3077 3083 3088 3093 3095 3098 3101 3104 3106 3108 3112 3113 3116 3116 3118 3118 3118 3117 3116 3116 3116 3115 3112 3111 3109 3108 3108 3108 3108
3064 3062 3060 3059 3055 3055 3048 3033 3039 3042 3043 3044 3045 3046 3047 3048 3049 3056 3059 3061 3066 3070 3077 3082 3086 3090 3093 3094 3096 3097 3101 3103 3105 3109 3111 3111 3108 3108 3109 3108 3106 3105 3105 3104 3102 3102 3102 3103 3103
3061 3060 3058 3056 3054 3051 3053 3032 3029 3032 3034 3036 3037 3038 3041 3040 3041 3041 3044 3048 3053 3059 3065 3069 3074 3078 3081 3085 3085 3088 3091 3092 3099 3103 3103 3102 3101 3101 3100 3098 3097 3096 3097 3097 3097 3096 3096 3096 3097
3058 3056 3055 3052 3049 3047 3045 3045 3010 3024 3025 3028 3030 3032 3032 3032 3033 3036 3040 3042 3046 3050 3055 3058 3062 3067 3071 3075 3078 3081 3083 3086 3091 3093 3094 3094 3094 3093 3092 3091 3089 3089 3090 3091 3090 3091 3090 3090 3091
3054 3052 3050 3047 3042 3040 3037 3038 3006 3019 3018 3020 3024 3024 3024 3023 3024 3026 3031 3035 3038 3041 3046 3049 3050 3056 3060 3064 3069 3072 3074 3078 3082 3085 3086 3087 3087 3085 3085 3084 3083 3083 3083 3084 3084 3084 3084 3085 3085
3051 3050 3048 3046 3040 3036 3032 3031 3014 3014 3017 3016 3016 3017 3017 3017 3017 3017 3020 3026 3030 3033 3036 3039 3042 3043 3049 3054 3058 3062 3065 3069 3073 3076 3078 3079 3078 3078 3077 3076 3076 3076 3077 3078 3079 3078 3079 3079 3080
3047 3047 3048 3046 3040 3031 3028 3019 3008 3009 3009 3009 3009 3009 3009 3009 3009 3009 3010 3013 3018 3022 3025 3029 3032 3034 3039 3042 3048 3053 3058 3061 3064 3068 3069 3069 3069 3070 3069 3068 3069 3069 3071 3072 3072 3073 3073 3074 3075
3040 3040 3041 3038 3034 3031 3018 3009 3006 3004 3005 3004 3004 3003 3003 3002 3000 3000 3001 3002 3005 3010 3015 3018 3021 3025 3030 3034 3039 3043 3048 3052 3056 3058 3059 3060 3060 3060 3060 3061 3063 3063 3065 3066 3067 3067 3068 3069 3070
3037 3036 3035 3036 3031 3023 3008 3005 2999 2999 3000 2999 2998 2996 2996 2994 2991 2990 2991 2992 2993 2997 3004 3008 3012 3015 3020 3025 3030 3036 3040 3044 3045 3047 3049 3050 3051 3051 3053 3055 3056 3058 3060 3061 3062 3062 3063 3064 3065
3029 3027 3026 3026 3023 3017 3008 2997 2994 2994 2995 2993 2991 2989 2987 2984 2980 2978 2979 2982 2981 2985 2991 2997 3003 3006 3011 3017 3022 3026 3030 3034 3036 3038 3039 3041 3042 3044 3047 3049 3051 3053 3055 3056 3056 3057 3059 3059 3060
3020 3018 3019 3019 3013 3008 3006 2983 2985 2988 2989 2986 2983 2981 2979 2976 2971 2969 2970 2971 2970 2973 2979 2987 2994 3000 3005 3010 3014 3019 3023 3025 3027 3030 3030 3032 3034 3038 3041 3043 3046 3047 3049 3050 3051 3053 3054 3055 3056